Miscellaneous Local Product
Issued by NWS North Platte, NE

Home | Current Version | Previous Version | Text Only | Print | Product List | Glossary On
Versions: 1 2 3 4 5 6 7 8 9 10 11 12 13 14 15 16 17 18 19 20 21 22 23 24 25 26 27 28 29 30 31 32 33 34 35 36 37 38 39 40 41 42 43 44 45 46 47 48 49 50
000
AXUS43 KLBF 220310
MISLBF


WESTERN AND NORTH CENTRAL NEBRASKA HOURLY WEATHER ROUNDUP
NATIONAL WEATHER SERVICE NORTH PLATTE NE
1000 PM CDT SAT OCT 21 2017

NOTE: "FAIR" INDICATES FEW OR NO CLOUDS BELOW 12,000 FEET WITH NO
SIGNIFICANT WEATHER AND/OR OBSTRUCTIONS TO VISIBILITY.

NOTE: STATIONS NOT REPORTING VARIABLES SUCH AS SKY/WEATHER OR
PRESSURE ARE PROVIDED BY RAWS AND APRS NETWORKS AND ARE NOT UNDER
NATIONAL WEATHER SERVICE QUALITY CONTROL.

...OBSERVATIONS IN AND NEAR THE EASTERN PANHANDLE OF NEBRASKA...

CITY           SKY/WX    TMP DP  RH WIND       PRES   REMARKS
PINE RIDGE     CLEAR     30  23  75 CALM      30.01R
GORDON         FAIR      34  21  59 W3        30.01R
CHADRON        CLEAR     33  15  47 W8        30.01R WCI  26
ALLIANCE       CLEAR     33  20  58 NW7       30.04S HAZE    WCI  27
SIDNEY         CLEAR     40  16  37 W13       30.09S WCI  32
CRESCENT LAKE    N/A     41  22  46 W6          N/A
$$

...OBSERVATIONS IN NORTHERN NEBRASKA AND FAR SOUTHERN SOUTH DAKOTA...

CITY           SKY/WX    TMP DP  RH WIND       PRES   REMARKS
WINNER         FAIR      45  31  58 W8        29.96R
VALENTINE      CLEAR     37  29  72 W6        29.99R WCI  32
THEDFORD       CLEAR     37  28  71 W6        30.01R WCI  32
AINSWORTH      CLEAR     40  31  71 W5        29.99R
O`NEILL        CLEAR     42  33  69 W6        29.97F
ORD            CLEAR     36  32  85 NW6       29.97S WCI  31
BROKEN BOW     CLEAR     40  27  59 N3        29.99S
VALENTINE NWR    N/A     40  31  71 NW3         N/A
HALSEY           N/A     45  22  39 W5          N/A
BUTTE            N/A     43  33  67 CALM        N/A
CHAMBERS         N/A     40  31  71 CALM        N/A
EWING            N/A     39  34  83 CALM        N/A
$$

...OBSERVATIONS IN SOUTHWEST NEBRASKA AND FAR NORTHEAST COLORADO...

CITY           SKY/WX    TMP DP  RH WIND       PRES   REMARKS
WRAY           FAIR      43  18  36 W10       30.10S
HOLYOKE        FAIR      43  19  39 W10       30.09S
IMPERIAL       CLEAR     46  20  35 NW12      30.06R
OGALLALA       CLEAR     37  25  61 W9        30.06R WCI  31
NORTH PLATTE   CLEAR     35  27  72 NW6       30.02S WCI  30
MCCOOK         CLEAR     46  24  42 W6        30.04R
LEXINGTON      CLEAR     39  28  65 W6        30.02R WCI  35
STAPLETON        N/A     38  24  57 CALM        N/A
GOTHENBURG       N/A     46  21  37 W3          N/A
CALLAWAY         N/A     40  30  67 NW3         N/A
$$

...OBSERVATIONS IN CENTRAL LINCOLN COUNTY AREA...

CITY           SKY/WX    TMP DP  RH WIND       PRES   REMARKS
N.P. AIRPORT   CLEAR     35  27  72 NW6       30.02S WCI  30
N.P. DOWNTOWN    N/A     41  29  63 CALM        N/A
N.P. SOUTHEAST   N/A     43  27  53 CALM        N/A
N.P. HILLCREST   N/A     44  24  45 CALM        N/A
$$

...SOME OBSERVATIONS FROM AROUND THE REGION...

CITY           SKY/WX    TMP DP  RH WIND       PRES   REMARKS
DENVER         CLEAR     36  11  35 SE7       30.14S WCI  30
LIMON          CLEAR     30  12  47 CALM      30.16R
ASPEN          CLOUDY    28  22  78 SW6       30.32R WCI  22
LARAMIE        CLEAR     30  16  56 SW14      30.13R WCI  19
CASPER         CLEAR     32  12  43 SW10      30.07R WCI  24
CHEYENNE       CLEAR     36  17  46 W10       30.10F WCI  28
SCOTTSBLUFF    CLEAR     48  15  26 W15       30.06S
GRAND ISLAND   CLOUDY    43  39  86 W6        29.99S
OMAHA          CLOUDY    53  39  59 NW9       29.95R
SIOUX FALLS    CLEAR     47  40  76 W6        29.90R
PIERRE         CLEAR     46  35  65 W7        29.91R
RAPID CITY     CLEAR     42  18  37 SW6       29.97R
BISMARCK       PTCLDY    47  34  60 W8        29.82R
KANSAS CITY    TSTM      55  54  96 N17G23    29.92R FOG
HILL CITY      CLEAR     40  35  83 CALM      30.04R
WICHITA        TSTM      57  53  86 N12G20    29.94R
DODGE CITY     CLEAR     42  32  67 N6        30.02R
OKLAHOMA CITY  TSTM      57  54  89 N26G36    29.90R
DALLAS         MOCLDY    81  66  60 S12       29.83R
AMARILLO       CLEAR     46  36  68 N9        30.05R
$$




USA.gov is the U.S. government's official web portal to all federal, state and local government web resources and services.